owner,sensor,date,latitude,longitude,sea_surface_height_above_sea_level,qcFlag 
TCOON,ioos:station:TCOON:005:1,2014-11-01T00:18:00Z,27.6346,-97.2370,1.051,1111122 
TCOON,ioos:station:TCOON:005:1,2014-11-01T01:18:00Z,27.6346,-97.2370,1.039,1111122 
TCOON,ioos:station:TCOON:005:1,2014-11-01T02:18:00Z,27.6346,-97.2370,1.052,1111122 
TCOON,ioos:station:TCOON:005:1,2014-11-01T03:18:00Z,27.6346,-97.2370,1.053,1111122 
TCOON,ioos:station:TCOON:005:1,2014-11-01T04:18:00Z,27.6346,-97.2370,1.073,1111122 
TCOON,ioos:station:TCOON:005:1,2014-11-01T05:12:00Z,27.6346,-97.2370,1.084,1111122 
TCOON,ioos:station:TCOON:005:1,2014-11-01T06:54:00Z,27.6346,-97.2370,1.091,1111122 
TCOON,ioos:station:TCOON:005:1,2014-11-01T07:12:00Z,27.6346,-97.2370,1.093,1111122 
TCOON,ioos:station:TCOON:005:1,2014-11-01T08:12:00Z,27.6346,-97.2370,1.1,1111122 
TCOON,ioos:station:TCOON:005:1,2014-11-01T09:12:00Z,27.6346,-97.2370,1.107,1111122 
TCOON,ioos:station:TCOON:005:1,2014-11-01T10:12:00Z,27.6346,-97.2370,1.117,1111122 
TCOON,ioos:station:TCOON:005:1,2014-11-01T11:12:00Z,27.6346,-97.2370,1.125,1111122 
TCOON,ioos:station:TCOON:005:1,2014-11-01T12:12:00Z,27.6346,-97.2370,1.131,1111122 
TCOON,ioos:station:TCOON:005:1,2014-11-01T13:12:00Z,27.6346,-97.2370,1.139,1111122 
TCOON,ioos:station:TCOON:005:1,2014-11-01T14:12:00Z,27.6346,-97.2370,1.144,1111122 
TCOON,ioos:station:TCOON:005:1,2014-11-01T15:12:00Z,27.6346,-97.2370,1.146,1111122 
TCOON,ioos:station:TCOON:005:1,2014-11-01T16:12:00Z,27.6346,-97.2370,1.138,1111122 
TCOON,ioos:station:TCOON:005:1,2014-11-01T17:12:00Z,27.6346,-97.2370,1.141,1111122 
TCOON,ioos:station:TCOON:005:1,2014-11-01T18:12:00Z,27.6346,-97.2370,1.135,1111122 
TCOON,ioos:station:TCOON:005:1,2014-11-01T19:12:00Z,27.6346,-97.2370,1.138,1111122 
TCOON,ioos:station:TCOON:005:1,2014-11-01T20:18:00Z,27.6346,-97.2370,1.137,1111122 
TCOON,ioos:station:TCOON:005:1,2014-11-01T21:18:00Z,27.6346,-97.2370,1.127,1111122 
TCOON,ioos:station:TCOON:005:1,2014-11-01T22:12:00Z,27.6346,-97.2370,1.117,1111122 
TCOON,ioos:station:TCOON:005:1,2014-11-01T23:12:00Z,27.6346,-97.2370,1.099,1111122 
TCOON,ioos:station:TCOON:005:1,2014-11-02T00:12:00Z,27.6346,-97.2370,1.083,1111122 
TCOON,ioos:station:TCOON:005:1,2014-11-02T01:18:00Z,27.6346,-97.2370,1.072,1111122 
TCOON,ioos:station:TCOON:005:1,2014-11-02T02:12:00Z,27.6346,-97.2370,1.062,1111122 
TCOON,ioos:station:TCOON:005:1,2014-11-02T03:12:00Z,27.6346,-97.2370,1.064,1111122 
TCOON,ioos:station:TCOON:005:1,2014-11-02T04:18:00Z,27.6346,-97.2370,1.068,1111122 
TCOON,ioos:station:TCOON:005:1,2014-11-02T05:12:00Z,27.6346,-97.2370,1.074,1111122 
TCOON,ioos:station:TCOON:005:1,2014-11-02T06:30:00Z,27.6346,-97.2370,1.083,1111122 
TCOON,ioos:station:TCOON:005:1,2014-11-02T07:12:00Z,27.6346,-97.2370,1.091,1111122 
TCOON,ioos:station:TCOON:005:1,2014-11-02T08:12:00Z,27.6346,-97.2370,1.101,1111122 
TCOON,ioos:station:TCOON:005:1,2014-11-02T09:12:00Z,27.6346,-97.2370,1.112,1111122 
TCOON,ioos:station:TCOON:005:1,2014-11-02T10:12:00Z,27.6346,-97.2370,1.115,1111122 
TCOON,ioos:station:TCOON:005:1,2014-11-02T11:12:00Z,27.6346,-97.2370,1.117,1111122 
TCOON,ioos:station:TCOON:005:1,2014-11-02T12:12:00Z,27.6346,-97.2370,1.117,1111122 
TCOON,ioos:station:TCOON:005:1,2014-11-02T13:12:00Z,27.6346,-97.2370,1.118,1111122 
TCOON,ioos:station:TCOON:005:1,2014-11-02T14:12:00Z,27.6346,-97.2370,1.118,1111122 
TCOON,ioos:station:TCOON:005:1,2014-11-02T15:12:00Z,27.6346,-97.2370,1.119,1111122 
TCOON,ioos:station:TCOON:005:1,2014-11-02T16:12:00Z,27.6346,-97.2370,1.107,1111122 
TCOON,ioos:station:TCOON:005:1,2014-11-02T17:12:00Z,27.6346,-97.2370,1.097,1111122 
TCOON,ioos:station:TCOON:005:1,2014-11-02T18:12:00Z,27.6346,-97.2370,1.101,1111122 
TCOON,ioos:station:TCOON:005:1,2014-11-02T19:12:00Z,27.6346,-97.2370,1.107,1111122 
TCOON,ioos:station:TCOON:005:1,2014-11-02T20:12:00Z,27.6346,-97.2370,1.12,1111122 
TCOON,ioos:station:TCOON:005:1,2014-11-02T21:18:00Z,27.6346,-97.2370,1.115,1111122 
TCOON,ioos:station:TCOON:005:1,2014-11-02T22:12:00Z,27.6346,-97.2370,1.111,1111122 
TCOON,ioos:station:TCOON:005:1,2014-11-02T23:12:00Z,27.6346,-97.2370,1.106,1111122 
TCOON,ioos:station:TCOON:005:1,2014-11-03T00:12:00Z,27.6346,-97.2370,1.094,1111122 
TCOON,ioos:station:TCOON:005:1,2014-11-03T01:18:00Z,27.6346,-97.2370,1.08,1111122 
TCOON,ioos:station:TCOON:005:1,2014-11-03T02:18:00Z,27.6346,-97.2370,1.079,1111122 
TCOON,ioos:station:TCOON:005:1,2014-11-03T03:12:00Z,27.6346,-97.2370,1.081,1111122 
TCOON,ioos:station:TCOON:005:1,2014-11-03T04:18:00Z,27.6346,-97.2370,1.078,1111122 
TCOON,ioos:station:TCOON:005:1,2014-11-03T05:12:00Z,27.6346,-97.2370,1.078,1111122 
TCOON,ioos:station:TCOON:005:1,2014-11-03T06:18:00Z,27.6346,-97.2370,1.081,1111122 
TCOON,ioos:station:TCOON:005:1,2014-11-03T07:12:00Z,27.6346,-97.2370,1.087,1111122 
TCOON,ioos:station:TCOON:005:1,2014-11-03T08:12:00Z,27.6346,-97.2370,1.089,1111122 
TCOON,ioos:station:TCOON:005:1,2014-11-03T09:12:00Z,27.6346,-97.2370,1.095,1111122 
TCOON,ioos:station:TCOON:005:1,2014-11-03T10:12:00Z,27.6346,-97.2370,1.1,1111122 
TCOON,ioos:station:TCOON:005:1,2014-11-03T11:30:00Z,27.6346,-97.2370,1.095,1111122 
TCOON,ioos:station:TCOON:005:1,2014-11-03T12:12:00Z,27.6346,-97.2370,1.089,1111122 
TCOON,ioos:station:TCOON:005:1,2014-11-03T13:18:00Z,27.6346,-97.2370,1.088,1111122 
TCOON,ioos:station:TCOON:005:1,2014-11-03T14:12:00Z,27.6346,-97.2370,1.085,1111122 
TCOON,ioos:station:TCOON:005:1,2014-11-03T15:12:00Z,27.6346,-97.2370,1.085,1111122 
TCOON,ioos:station:TCOON:005:1,2014-11-03T16:12:00Z,27.6346,-97.2370,1.077,1111122 
TCOON,ioos:station:TCOON:005:1,2014-11-03T17:12:00Z,27.6346,-97.2370,1.073,1111122 
TCOON,ioos:station:TCOON:005:1,2014-11-03T18:12:00Z,27.6346,-97.2370,1.072,1111122 
TCOON,ioos:station:TCOON:005:1,2014-11-03T19:12:00Z,27.6346,-97.2370,1.075,1111122 
TCOON,ioos:station:TCOON:005:1,2014-11-03T20:12:00Z,27.6346,-97.2370,1.084,1111122 
TCOON,ioos:station:TCOON:005:1,2014-11-03T21:18:00Z,27.6346,-97.2370,1.09,1111122 
TCOON,ioos:station:TCOON:005:1,2014-11-03T22:54:00Z,27.6346,-97.2370,1.09,1111122 
TCOON,ioos:station:TCOON:005:1,2014-11-03T23:12:00Z,27.6346,-97.2370,1.089,1111122 
TCOON,ioos:station:TCOON:005:1,2014-11-04T00:12:00Z,27.6346,-97.2370,1.09,1111122 
TCOON,ioos:station:TCOON:005:1,2014-11-04T01:12:00Z,27.6346,-97.2370,1.087,1111122 
TCOON,ioos:station:TCOON:005:1,2014-11-04T02:12:00Z,27.6346,-97.2370,1.079,1111122 
TCOON,ioos:station:TCOON:005:1,2014-11-04T03:12:00Z,27.6346,-97.2370,1.075,1111122 
TCOON,ioos:station:TCOON:005:1,2014-11-04T04:12:00Z,27.6346,-97.2370,1.08,1111122 
TCOON,ioos:station:TCOON:005:1,2014-11-04T05:12:00Z,27.6346,-97.2370,1.08,1111122 
TCOON,ioos:station:TCOON:005:1,2014-11-04T06:18:00Z,27.6346,-97.2370,1.078,1111122 
TCOON,ioos:station:TCOON:005:1,2014-11-04T07:18:00Z,27.6346,-97.2370,1.085,1111122 
TCOON,ioos:station:TCOON:005:1,2014-11-04T08:18:00Z,27.6346,-97.2370,1.087,1111122 
TCOON,ioos:station:TCOON:005:1,2014-11-04T09:12:00Z,27.6346,-97.2370,1.086,1111122 
TCOON,ioos:station:TCOON:005:1,2014-11-04T10:12:00Z,27.6346,-97.2370,1.081,1111122 
TCOON,ioos:station:TCOON:005:1,2014-11-04T11:12:00Z,27.6346,-97.2370,1.076,1111122 
TCOON,ioos:station:TCOON:005:1,2014-11-04T12:12:00Z,27.6346,-97.2370,1.074,1111122 
TCOON,ioos:station:TCOON:005:1,2014-11-04T13:12:00Z,27.6346,-97.2370,1.07,1111122 
TCOON,ioos:station:TCOON:005:1,2014-11-04T14:12:00Z,27.6346,-97.2370,1.068,1111122 
TCOON,ioos:station:TCOON:005:1,2014-11-04T15:12:00Z,27.6346,-97.2370,1.06,1111122 
TCOON,ioos:station:TCOON:005:1,2014-11-04T16:36:00Z,27.6346,-97.2370,1.059,1111122 
TCOON,ioos:station:TCOON:005:1,2014-11-04T17:18:00Z,27.6346,-97.2370,1.065,1111122 
TCOON,ioos:station:TCOON:005:1,2014-11-04T18:18:00Z,27.6346,-97.2370,1.063,1111122 
TCOON,ioos:station:TCOON:005:1,2014-11-04T19:18:00Z,27.6346,-97.2370,1.058,1111122 
TCOON,ioos:station:TCOON:005:1,2014-11-04T20:12:00Z,27.6346,-97.2370,1.066,1111122 
TCOON,ioos:station:TCOON:005:1,2014-11-04T21:18:00Z,27.6346,-97.2370,1.078,1111122 
TCOON,ioos:station:TCOON:005:1,2014-11-04T22:42:00Z,27.6346,-97.2370,1.096,1111122 
TCOON,ioos:station:TCOON:005:1,2014-11-04T23:12:00Z,27.6346,-97.2370,1.103,1111122 
TCOON,ioos:station:TCOON:005:1,2014-11-05T00:18:00Z,27.6346,-97.2370,1.121,1111122 
TCOON,ioos:station:TCOON:005:1,2014-11-05T01:18:00Z,27.6346,-97.2370,1.127,1111122 
TCOON,ioos:station:TCOON:005:1,2014-11-05T02:12:00Z,27.6346,-97.2370,1.127,1111122 
TCOON,ioos:station:TCOON:005:1,2014-11-05T03:12:00Z,27.6346,-97.2370,1.131,1111122 
TCOON,ioos:station:TCOON:005:1,2014-11-05T04:24:00Z,27.6346,-97.2370,1.129,1111122 
TCOON,ioos:station:TCOON:005:1,2014-11-05T05:12:00Z,27.6346,-97.2370,1.13,1111122 
TCOON,ioos:station:TCOON:005:1,2014-11-05T06:24:00Z,27.6346,-97.2370,1.128,1111122 
TCOON,ioos:station:TCOON:005:1,2014-11-05T07:12:00Z,27.6346,-97.2370,1.125,1111122 
TCOON,ioos:station:TCOON:005:1,2014-11-05T08:12:00Z,27.6346,-97.2370,1.123,1111122 
TCOON,ioos:station:TCOON:005:1,2014-11-05T09:12:00Z,27.6346,-97.2370,1.123,1111122 
TCOON,ioos:station:TCOON:005:1,2014-11-05T10:12:00Z,27.6346,-97.2370,1.119,1111122 
TCOON,ioos:station:TCOON:005:1,2014-11-05T11:18:00Z,27.6346,-97.2370,1.115,1111122 
TCOON,ioos:station:TCOON:005:1,2014-11-05T12:12:00Z,27.6346,-97.2370,1.1,1111122 
TCOON,ioos:station:TCOON:005:1,2014-11-05T13:12:00Z,27.6346,-97.2370,1.083,1111122 
TCOON,ioos:station:TCOON:005:1,2014-11-05T14:12:00Z,27.6346,-97.2370,1.06,1111122 
TCOON,ioos:station:TCOON:005:1,2014-11-05T15:12:00Z,27.6346,-97.2370,1.05,1111122 
TCOON,ioos:station:TCOON:005:1,2014-11-05T16:18:00Z,27.6346,-97.2370,1.048,1111122 
TCOON,ioos:station:TCOON:005:1,2014-11-05T17:36:00Z,27.6346,-97.2370,1.063,1111122 
TCOON,ioos:station:TCOON:005:1,2014-11-05T18:18:00Z,27.6346,-97.2370,1.049,1111122 
TCOON,ioos:station:TCOON:005:1,2014-11-05T19:12:00Z,27.6346,-97.2370,1.054,1111122 
TCOON,ioos:station:TCOON:005:1,2014-11-05T20:18:00Z,27.6346,-97.2370,1.067,1111122 
TCOON,ioos:station:TCOON:005:1,2014-11-05T21:12:00Z,27.6346,-97.2370,1.075,1111122 
TCOON,ioos:station:TCOON:005:1,2014-11-05T22:24:00Z,27.6346,-97.2370,1.088,1111122 
TCOON,ioos:station:TCOON:005:1,2014-11-05T23:12:00Z,27.6346,-97.2370,1.096,1111122 
TCOON,ioos:station:TCOON:005:1,2014-11-06T00:24:00Z,27.6346,-97.2370,1.108,1111122 
TCOON,ioos:station:TCOON:005:1,2014-11-06T01:24:00Z,27.6346,-97.2370,1.127,1111122 
TCOON,ioos:station:TCOON:005:1,2014-11-06T02:18:00Z,27.6346,-97.2370,1.134,1111122 
TCOON,ioos:station:TCOON:005:1,2014-11-06T03:12:00Z,27.6346,-97.2370,1.139,1111122 
TCOON,ioos:station:TCOON:005:1,2014-11-06T04:18:00Z,27.6346,-97.2370,1.143,1111122 
TCOON,ioos:station:TCOON:005:1,2014-11-06T05:12:00Z,27.6346,-97.2370,1.151,1111122 
TCOON,ioos:station:TCOON:005:1,2014-11-06T06:24:00Z,27.6346,-97.2370,1.153,1111122 
TCOON,ioos:station:TCOON:005:1,2014-11-06T07:12:00Z,27.6346,-97.2370,1.155,1111122 
TCOON,ioos:station:TCOON:005:1,2014-11-06T08:24:00Z,27.6346,-97.2370,1.158,1111122 
TCOON,ioos:station:TCOON:005:1,2014-11-06T09:12:00Z,27.6346,-97.2370,1.154,1111122 
TCOON,ioos:station:TCOON:005:1,2014-11-06T10:12:00Z,27.6346,-97.2370,1.176,1111122 
TCOON,ioos:station:TCOON:005:1,2014-11-06T11:12:00Z,27.6346,-97.2370,1.163,1111122 
TCOON,ioos:station:TCOON:005:1,2014-11-06T12:12:00Z,27.6346,-97.2370,1.146,1111122 
TCOON,ioos:station:TCOON:005:1,2014-11-06T13:18:00Z,27.6346,-97.2370,1.133,1111122 
TCOON,ioos:station:TCOON:005:1,2014-11-06T14:12:00Z,27.6346,-97.2370,1.122,1111122 
TCOON,ioos:station:TCOON:005:1,2014-11-06T15:12:00Z,27.6346,-97.2370,1.125,1111122 
TCOON,ioos:station:TCOON:005:1,2014-11-06T16:18:00Z,27.6346,-97.2370,1.132,1111122 
TCOON,ioos:station:TCOON:005:1,2014-11-06T17:12:00Z,27.6346,-97.2370,1.12,1111122 
TCOON,ioos:station:TCOON:005:1,2014-11-06T18:12:00Z,27.6346,-97.2370,1.114,1111122 
TCOON,ioos:station:TCOON:005:1,2014-11-06T19:18:00Z,27.6346,-97.2370,1.117,1111122 
TCOON,ioos:station:TCOON:005:1,2014-11-06T20:12:00Z,27.6346,-97.2370,1.115,1111122 
TCOON,ioos:station:TCOON:005:1,2014-11-06T21:12:00Z,27.6346,-97.2370,1.127,1111122 
TCOON,ioos:station:TCOON:005:1,2014-11-06T22:36:00Z,27.6346,-97.2370,1.147,1111122 
TCOON,ioos:station:TCOON:005:1,2014-11-06T23:12:00Z,27.6346,-97.2370,1.156,1111122 
TCOON,ioos:station:TCOON:005:1,2014-11-07T00:12:00Z,27.6346,-97.2370,1.165,1111122 
TCOON,ioos:station:TCOON:005:1,2014-11-07T01:18:00Z,27.6346,-97.2370,1.161,1111122 
TCOON,ioos:station:TCOON:005:1,2014-11-07T02:12:00Z,27.6346,-97.2370,1.17,1111122 
TCOON,ioos:station:TCOON:005:1,2014-11-07T03:12:00Z,27.6346,-97.2370,1.185,1111122 
TCOON,ioos:station:TCOON:005:1,2014-11-07T04:12:00Z,27.6346,-97.2370,1.193,1111122 
TCOON,ioos:station:TCOON:005:1,2014-11-07T05:12:00Z,27.6346,-97.2370,1.189,1111122 
TCOON,ioos:station:TCOON:005:1,2014-11-07T06:18:00Z,27.6346,-97.2370,1.188,1111122 
TCOON,ioos:station:TCOON:005:1,2014-11-07T07:12:00Z,27.6346,-97.2370,1.195,1111122 
TCOON,ioos:station:TCOON:005:1,2014-11-07T08:12:00Z,27.6346,-97.2370,1.2,1111122 
TCOON,ioos:station:TCOON:005:1,2014-11-07T09:12:00Z,27.6346,-97.2370,1.188,1111122 
TCOON,ioos:station:TCOON:005:1,2014-11-07T10:12:00Z,27.6346,-97.2370,1.178,1111122 
TCOON,ioos:station:TCOON:005:1,2014-11-07T11:12:00Z,27.6346,-97.2370,1.164,1111122 
TCOON,ioos:station:TCOON:005:1,2014-11-07T12:12:00Z,27.6346,-97.2370,1.155,1111122 
TCOON,ioos:station:TCOON:005:1,2014-11-07T13:12:00Z,27.6346,-97.2370,1.14,1111122 
TCOON,ioos:station:TCOON:005:1,2014-11-07T14:12:00Z,27.6346,-97.2370,1.135,1111122 
TCOON,ioos:station:TCOON:005:1,2014-11-07T15:18:00Z,27.6346,-97.2370,1.119,1111122 
TCOON,ioos:station:TCOON:005:1,2014-11-07T16:12:00Z,27.6346,-97.2370,1.102,1111122 
TCOON,ioos:station:TCOON:005:1,2014-11-07T17:12:00Z,27.6346,-97.2370,1.082,1111122 
TCOON,ioos:station:TCOON:005:1,2014-11-07T18:18:00Z,27.6346,-97.2370,1.064,1111122 
TCOON,ioos:station:TCOON:005:1,2014-11-07T19:12:00Z,27.6346,-97.2370,1.066,1111122 
TCOON,ioos:station:TCOON:005:1,2014-11-07T20:12:00Z,27.6346,-97.2370,1.063,1111122 
TCOON,ioos:station:TCOON:005:1,2014-11-07T21:18:00Z,27.6346,-97.2370,1.066,1111122 
TCOON,ioos:station:TCOON:005:1,2014-11-07T22:24:00Z,27.6346,-97.2370,1.085,1111122 
TCOON,ioos:station:TCOON:005:1,2014-11-07T23:12:00Z,27.6346,-97.2370,1.099,1111122 
TCOON,ioos:station:TCOON:005:1,2014-11-08T00:18:00Z,27.6346,-97.2370,1.123,1111122 
TCOON,ioos:station:TCOON:005:1,2014-11-08T01:18:00Z,27.6346,-97.2370,1.145,1111122 
TCOON,ioos:station:TCOON:005:1,2014-11-08T02:18:00Z,27.6346,-97.2370,1.163,1111122 
TCOON,ioos:station:TCOON:005:1,2014-11-08T03:12:00Z,27.6346,-97.2370,1.177,1111122 
TCOON,ioos:station:TCOON:005:1,2014-11-08T04:18:00Z,27.6346,-97.2370,1.191,1111122 
TCOON,ioos:station:TCOON:005:1,2014-11-08T05:12:00Z,27.6346,-97.2370,1.206,1111122 
TCOON,ioos:station:TCOON:005:1,2014-11-08T06:18:00Z,27.6346,-97.2370,1.212,1111122 
TCOON,ioos:station:TCOON:005:1,2014-11-08T07:12:00Z,27.6346,-97.2370,1.223,1111122 
TCOON,ioos:station:TCOON:005:1,2014-11-08T08:12:00Z,27.6346,-97.2370,1.222,1111122 
TCOON,ioos:station:TCOON:005:1,2014-11-08T09:12:00Z,27.6346,-97.2370,1.223,1111122 
TCOON,ioos:station:TCOON:005:1,2014-11-08T10:12:00Z,27.6346,-97.2370,1.228,1111122 
TCOON,ioos:station:TCOON:005:1,2014-11-08T11:18:00Z,27.6346,-97.2370,1.224,1111122 
TCOON,ioos:station:TCOON:005:1,2014-11-08T12:12:00Z,27.6346,-97.2370,1.216,1111122 
TCOON,ioos:station:TCOON:005:1,2014-11-08T13:12:00Z,27.6346,-97.2370,1.196,1111122 
TCOON,ioos:station:TCOON:005:1,2014-11-08T14:12:00Z,27.6346,-97.2370,1.186,1111122 
TCOON,ioos:station:TCOON:005:1,2014-11-08T15:12:00Z,27.6346,-97.2370,1.159,1111122 
TCOON,ioos:station:TCOON:005:1,2014-11-08T16:12:00Z,27.6346,-97.2370,1.122,1111122 
TCOON,ioos:station:TCOON:005:1,2014-11-08T17:24:00Z,27.6346,-97.2370,1.105,1111122 
TCOON,ioos:station:TCOON:005:1,2014-11-08T18:18:00Z,27.6346,-97.2370,1.083,1111122 
TCOON,ioos:station:TCOON:005:1,2014-11-08T19:12:00Z,27.6346,-97.2370,1.067,1111122 
TCOON,ioos:station:TCOON:005:1,2014-11-08T20:12:00Z,27.6346,-97.2370,1.075,1111122 
TCOON,ioos:station:TCOON:005:1,2014-11-08T21:12:00Z,27.6346,-97.2370,1.083,1111122 
TCOON,ioos:station:TCOON:005:1,2014-11-08T22:12:00Z,27.6346,-97.2370,1.087,1111122 
TCOON,ioos:station:TCOON:005:1,2014-11-08T23:12:00Z,27.6346,-97.2370,1.09,1111122 
TCOON,ioos:station:TCOON:005:1,2014-11-09T00:12:00Z,27.6346,-97.2370,1.103,1111122 
TCOON,ioos:station:TCOON:005:1,2014-11-09T01:12:00Z,27.6346,-97.2370,1.119,1111122 
TCOON,ioos:station:TCOON:005:1,2014-11-09T02:12:00Z,27.6346,-97.2370,1.141,1111122 
TCOON,ioos:station:TCOON:005:1,2014-11-09T03:12:00Z,27.6346,-97.2370,1.16,1111122 
TCOON,ioos:station:TCOON:005:1,2014-11-09T04:18:00Z,27.6346,-97.2370,1.181,1111122 
TCOON,ioos:station:TCOON:005:1,2014-11-09T05:12:00Z,27.6346,-97.2370,1.206,1111122 
TCOON,ioos:station:TCOON:005:1,2014-11-09T06:12:00Z,27.6346,-97.2370,1.196,1111122 
TCOON,ioos:station:TCOON:005:1,2014-11-09T07:12:00Z,27.6346,-97.2370,1.189,1111122 
TCOON,ioos:station:TCOON:005:1,2014-11-09T08:12:00Z,27.6346,-97.2370,1.183,1111122 
TCOON,ioos:station:TCOON:005:1,2014-11-09T09:12:00Z,27.6346,-97.2370,1.185,1111122 
TCOON,ioos:station:TCOON:005:1,2014-11-09T10:12:00Z,27.6346,-97.2370,1.185,1111122 
TCOON,ioos:station:TCOON:005:1,2014-11-09T11:12:00Z,27.6346,-97.2370,1.184,1111122 
TCOON,ioos:station:TCOON:005:1,2014-11-09T12:12:00Z,27.6346,-97.2370,1.176,1111122 
TCOON,ioos:station:TCOON:005:1,2014-11-09T13:12:00Z,27.6346,-97.2370,1.166,1111122 
TCOON,ioos:station:TCOON:005:1,2014-11-09T14:12:00Z,27.6346,-97.2370,1.157,1111122 
TCOON,ioos:station:TCOON:005:1,2014-11-09T15:12:00Z,27.6346,-97.2370,1.132,1111122 
TCOON,ioos:station:TCOON:005:1,2014-11-09T16:18:00Z,27.6346,-97.2370,1.089,1111122 
TCOON,ioos:station:TCOON:005:1,2014-11-09T17:12:00Z,27.6346,-97.2370,1.063,1111122 
TCOON,ioos:station:TCOON:005:1,2014-11-09T18:12:00Z,27.6346,-97.2370,1.048,1111122 
TCOON,ioos:station:TCOON:005:1,2014-11-09T19:12:00Z,27.6346,-97.2370,1.031,1111122 
TCOON,ioos:station:TCOON:005:1,2014-11-09T20:12:00Z,27.6346,-97.2370,1.033,1111122 
TCOON,ioos:station:TCOON:005:1,2014-11-09T21:12:00Z,27.6346,-97.2370,1.046,1111122 
TCOON,ioos:station:TCOON:005:1,2014-11-09T22:12:00Z,27.6346,-97.2370,1.05,1111122 
TCOON,ioos:station:TCOON:005:1,2014-11-09T23:12:00Z,27.6346,-97.2370,1.051,1111122 
TCOON,ioos:station:TCOON:005:1,2014-11-10T00:12:00Z,27.6346,-97.2370,1.06,1111122 
TCOON,ioos:station:TCOON:005:1,2014-11-10T01:12:00Z,27.6346,-97.2370,1.069,1111122 
TCOON,ioos:station:TCOON:005:1,2014-11-10T02:12:00Z,27.6346,-97.2370,1.078,1111122 
TCOON,ioos:station:TCOON:005:1,2014-11-10T03:12:00Z,27.6346,-97.2370,1.092,1111122 
TCOON,ioos:station:TCOON:005:1,2014-11-10T04:12:00Z,27.6346,-97.2370,1.106,1111122 
TCOON,ioos:station:TCOON:005:1,2014-11-10T05:12:00Z,27.6346,-97.2370,1.119,1111122 
TCOON,ioos:station:TCOON:005:1,2014-11-10T06:12:00Z,27.6346,-97.2370,1.128,1111122 
TCOON,ioos:station:TCOON:005:1,2014-11-10T07:12:00Z,27.6346,-97.2370,1.138,1111122 
TCOON,ioos:station:TCOON:005:1,2014-11-10T08:12:00Z,27.6346,-97.2370,1.14,1111122 
TCOON,ioos:station:TCOON:005:1,2014-11-10T09:12:00Z,27.6346,-97.2370,1.139,1111122 
TCOON,ioos:station:TCOON:005:1,2014-11-10T10:12:00Z,27.6346,-97.2370,1.136,1111122 
TCOON,ioos:station:TCOON:005:1,2014-11-10T11:12:00Z,27.6346,-97.2370,1.132,1111122 
TCOON,ioos:station:TCOON:005:1,2014-11-10T12:18:00Z,27.6346,-97.2370,1.127,1111122 
TCOON,ioos:station:TCOON:005:1,2014-11-10T13:12:00Z,27.6346,-97.2370,1.119,1111122 
TCOON,ioos:station:TCOON:005:1,2014-11-10T14:12:00Z,27.6346,-97.2370,1.11,1111122 
TCOON,ioos:station:TCOON:005:1,2014-11-10T15:30:00Z,27.6346,-97.2370,1.085,1111122 
TCOON,ioos:station:TCOON:005:1,2014-11-10T16:24:00Z,27.6346,-97.2370,1.064,1111122 
TCOON,ioos:station:TCOON:005:1,2014-11-10T17:12:00Z,27.6346,-97.2370,1.05,1111122 
TCOON,ioos:station:TCOON:005:1,2014-11-10T18:18:00Z,27.6346,-97.2370,1.035,1111122 
TCOON,ioos:station:TCOON:005:1,2014-11-10T19:18:00Z,27.6346,-97.2370,1.028,1111122 
TCOON,ioos:station:TCOON:005:1,2014-11-10T20:12:00Z,27.6346,-97.2370,1.021,1111122 
TCOON,ioos:station:TCOON:005:1,2014-11-10T21:12:00Z,27.6346,-97.2370,1.024,1111122 
TCOON,ioos:station:TCOON:005:1,2014-11-10T22:18:00Z,27.6346,-97.2370,1.036,1111122 
TCOON,ioos:station:TCOON:005:1,2014-11-10T23:18:00Z,27.6346,-97.2370,1.037,1111122 
TCOON,ioos:station:TCOON:005:1,2014-11-11T00:12:00Z,27.6346,-97.2370,1.037,1111122 
TCOON,ioos:station:TCOON:005:1,2014-11-11T01:18:00Z,27.6346,-97.2370,1.046,1111122 
TCOON,ioos:station:TCOON:005:1,2014-11-11T02:12:00Z,27.6346,-97.2370,1.056,1111122 
TCOON,ioos:station:TCOON:005:1,2014-11-11T03:12:00Z,27.6346,-97.2370,1.065,1111122 
TCOON,ioos:station:TCOON:005:1,2014-11-11T04:18:00Z,27.6346,-97.2370,1.076,1111122 
TCOON,ioos:station:TCOON:005:1,2014-11-11T05:12:00Z,27.6346,-97.2370,1.087,1111122 
TCOON,ioos:station:TCOON:005:1,2014-11-11T06:18:00Z,27.6346,-97.2370,1.092,1111122 
TCOON,ioos:station:TCOON:005:1,2014-11-11T07:12:00Z,27.6346,-97.2370,1.1,1111122 
TCOON,ioos:station:TCOON:005:1,2014-11-11T08:12:00Z,27.6346,-97.2370,1.107,1111122 
TCOON,ioos:station:TCOON:005:1,2014-11-11T09:12:00Z,27.6346,-97.2370,1.112,1111122 
TCOON,ioos:station:TCOON:005:1,2014-11-11T10:12:00Z,27.6346,-97.2370,1.119,1111122 
TCOON,ioos:station:TCOON:005:1,2014-11-11T11:12:00Z,27.6346,-97.2370,1.117,1111122 
TCOON,ioos:station:TCOON:005:1,2014-11-11T12:12:00Z,27.6346,-97.2370,1.113,1111122 
TCOON,ioos:station:TCOON:005:1,2014-11-11T13:12:00Z,27.6346,-97.2370,1.099,1111122 
TCOON,ioos:station:TCOON:005:1,2014-11-11T14:12:00Z,27.6346,-97.2370,1.073,1111122 
TCOON,ioos:station:TCOON:005:1,2014-11-11T15:12:00Z,27.6346,-97.2370,1.075,1111122 
TCOON,ioos:station:TCOON:005:1,2014-11-11T16:12:00Z,27.6346,-97.2370,1.055,1111122 
TCOON,ioos:station:TCOON:005:1,2014-11-11T17:18:00Z,27.6346,-97.2370,1.047,1111122 
TCOON,ioos:station:TCOON:005:1,2014-11-11T18:12:00Z,27.6346,-97.2370,1.046,1111122 
TCOON,ioos:station:TCOON:005:1,2014-11-11T19:18:00Z,27.6346,-97.2370,1.029,1111122 
TCOON,ioos:station:TCOON:005:1,2014-11-11T20:12:00Z,27.6346,-97.2370,1.021,1111122 
TCOON,ioos:station:TCOON:005:1,2014-11-11T21:12:00Z,27.6346,-97.2370,1.053,1111122 
TCOON,ioos:station:TCOON:005:1,2014-11-11T22:48:00Z,27.6346,-97.2370,1.019,1111122 
TCOON,ioos:station:TCOON:005:1,2014-11-11T23:12:00Z,27.6346,-97.2370,1.021,1111122 
TCOON,ioos:station:TCOON:005:1,2014-11-12T00:12:00Z,27.6346,-97.2370,1.02,1111122 
TCOON,ioos:station:TCOON:005:1,2014-11-12T01:18:00Z,27.6346,-97.2370,1.026,1111122 
TCOON,ioos:station:TCOON:005:1,2014-11-12T02:12:00Z,27.6346,-97.2370,1.031,1111122 
TCOON,ioos:station:TCOON:005:1,2014-11-12T03:12:00Z,27.6346,-97.2370,1.042,1111122 
TCOON,ioos:station:TCOON:005:1,2014-11-12T23:12:00Z,27.6346,-97.2370,1.013,1111122 
TCOON,ioos:station:TCOON:005:1,2014-11-13T00:12:00Z,27.6346,-97.2370,1.007,1111122 
TCOON,ioos:station:TCOON:005:1,2014-11-13T01:12:00Z,27.6346,-97.2370,1.028,1111122 
TCOON,ioos:station:TCOON:005:1,2014-11-13T02:12:00Z,27.6346,-97.2370,1.019,1111122 
TCOON,ioos:station:TCOON:005:1,2014-11-13T03:12:00Z,27.6346,-97.2370,1.04,1111122 
TCOON,ioos:station:TCOON:005:1,2014-11-13T04:12:00Z,27.6346,-97.2370,1.053,1111122 
TCOON,ioos:station:TCOON:005:1,2014-11-13T05:12:00Z,27.6346,-97.2370,1.057,1111122 
TCOON,ioos:station:TCOON:005:1,2014-11-13T06:18:00Z,27.6346,-97.2370,1.088,1111122 
TCOON,ioos:station:TCOON:005:1,2014-11-13T07:12:00Z,27.6346,-97.2370,1.109,1111122 
TCOON,ioos:station:TCOON:005:1,2014-11-13T08:12:00Z,27.6346,-97.2370,1.111,1111122 
TCOON,ioos:station:TCOON:005:1,2014-11-13T09:12:00Z,27.6346,-97.2370,1.142,1111122 
TCOON,ioos:station:TCOON:005:1,2014-11-13T10:12:00Z,27.6346,-97.2370,1.154,1111122 
TCOON,ioos:station:TCOON:005:1,2014-11-13T11:12:00Z,27.6346,-97.2370,1.168,1111122 
TCOON,ioos:station:TCOON:005:1,2014-11-13T12:12:00Z,27.6346,-97.2370,1.171,1111122 
TCOON,ioos:station:TCOON:005:1,2014-11-13T13:12:00Z,27.6346,-97.2370,1.161,1111122 
TCOON,ioos:station:TCOON:005:1,2014-11-13T14:12:00Z,27.6346,-97.2370,1.151,1111122 
TCOON,ioos:station:TCOON:005:1,2014-11-13T15:12:00Z,27.6346,-97.2370,1.14,1111122 